1377561634212,105.729
1377561694212,105.662
1377561754212,105.904
1377561814212,105.640
1377561874212,106.021
1377561934212,105.571
1377561994212,105.711
1377562054212,105.247
1377562114212,105.720
1377562174212,106.049
1377562234212,105.480
1377562294212,105.529
1377562354212,105.457
1377562414212,106.175
1377562474212,105.936
1377562534212,105.754
1377562594212,106.043
1377562654212,105.653
1377562714212,105.831
1377562774212,105.642
1377562834212,105.337
1377562894212,105.750
1377562954212,105.422
1377563014212,105.454
1377563074212,105.477
1377563134212,105.955
1377563194212,105.554
1377563254212,105.092
1377563314212,105.685
1377563374212,105.918
1377563434212,105.706
1377563494212,105.183
1377563554212,105.759
1377563614212,105.940
1377563674212,105.640
1377563734212,105.457
1377563794212,105.334
1377563854212,105.346
1377563914212,105.663
1377563974212,106.012
1377564034212,105.651
1377564094212,105.302
1377564154212,105.899
1377564214212,105.444
1377564274212,105.326
1377564334212,105.414
1377564394212,105.291
1377564454212,105.669
1377564514212,105.351
1377564574212,105.572
1377564634212,105.061
1377564694212,105.308
1377564754212,105.479
1377564814212,105.035
1377564874212,105.698
1377564934212,105.901
1377564994212,105.545
1377565054212,105.992
1377565114212,105.909
1377565174212,105.863
1377565234223,105.549
1377565294223,105.472
1377565354223,105.176
1377565414223,105.733
1377565474223,105.460
1377565534223,104.847
1377565594223,105.487
1377565654223,105.465
1377565714223,105.507
1377565774223,104.879
1377565834223,105.570
1377565894223,105.505
1377565954223,105.602
1377566014223,105.386
1377566074223,105.481
1377566134223,105.145
1377566194223,105.408
1377566254223,105.484
1377566314223,105.422
1377566374223,105.343
1377566434223,105.217
1377566494223,105.877
1377566554223,105.365
1377566614223,105.240
1377566674223,105.352
1377566734223,105.275
1377566794223,104.791
1377566854223,105.283
1377566914223,105.414
1377566974223,105.293
1377567034223,104.748
1377567094223,105.069
1377567154223,104.977
1377567214223,105.338
1377567274223,104.911
1377567334223,104.972
1377567394223,105.972
1377567454223,105.170
1377567514223,105.157
1377567574223,104.669
1377567634223,104.570
1377567694223,105.216
1377567754223,104.809
1377567814223,105.244
1377567874223,104.884
1377567934223,104.997
1377567994223,104.869
1377568054223,104.662
1377568114223,105.049
1377568174223,104.750
1377568234223,104.895
1377568294223,105.138
1377568354223,105.413
1377568414223,105.033
1377568474223,105.323
1377568534223,104.653
1377568594223,105.361
1377568654223,105.111
1377568714223,105.768
1377568774223,104.988
1377568834233,104.846
1377568894233,105.018
1377568954233,104.598
1377569014233,105.163
1377569074233,104.836
1377569134233,105.192
1377569194233,104.889
1377569254233,104.739
1377569314233,104.833
1377569374233,105.463
1377569434233,105.290
1377569494233,105.376
1377569554233,105.164
1377569614233,105.307
1377569674233,105.101
1377569734233,105.034
1377569794233,105.205
1377569854233,105.061
1377569914233,104.985
1377569974233,105.124
1377570034233,105.145
1377570094233,105.023
1377570154233,105.084
1377570214233,105.354
1377570274233,105.158
1377570334233,107.078
1377570394233,105.398
1377570454233,104.959
1377570514233,104.686
1377570574233,105.618
1377570634233,105.020
1377570694233,104.941
1377570754233,105.219
1377570814233,105.079
1377570874233,105.502
1377570934233,105.674
1377570994233,105.296
1377571054233,105.220
1377571114233,105.313
1377571174233,105.430
1377571234233,105.335
1377571294233,105.065
1377571354233,105.127
1377571414233,105.251
1377571474233,105.281
1377571534233,105.430
1377571594233,105.543
1377571654233,105.269
1377571714233,105.091
1377571774233,105.541
1377571834233,105.490
1377571894233,105.139
1377571954233,104.917
1377572014233,105.138
1377572074233,105.134
1377572134233,104.790
1377572194233,104.675
1377572254233,105.275
1377572314233,105.261
1377572374233,104.752
1377572434243,105.013
1377572494243,105.102
1377572554243,105.678
1377572614243,105.257
1377572674243,105.113
1377572734243,105.066
1377572794243,105.142
1377572854243,104.938
1377572914243,104.661
1377572974243,105.241
1377573034243,104.957
1377573094243,104.475
1377573154243,104.828
1377573214243,104.666
1377573274243,104.626
1377573334243,104.900
1377573394243,104.659
1377573454243,104.634
1377573514243,104.185
1377573574243,105.320
1377573634243,104.670
1377573694243,104.626
1377573754243,104.606
1377573814243,104.673
1377573874243,104.603
1377573934243,105.017
1377573994243,104.526
1377574054243,104.803
1377574114243,104.355
1377574174243,105.246
1377574234243,104.843
1377574294243,104.912
1377574354243,105.153
1377574414243,104.558
1377574474243,104.937
1377574534243,104.760
1377574594243,104.845
1377574654243,104.708
1377574714243,104.907
1377574774243,105.263
1377574834243,105.159
1377574894243,105.277
1377574954243,104.453
1377575014243,104.379
1377575074243,103.887
1377575134243,104.499
1377575194243,104.799
1377575254243,105.123
1377575314243,104.837
1377575374243,104.594
1377575434243,104.381
1377575494243,104.697
1377575554243,104.363
1377575614243,104.196
1377575674243,104.213
1377575734243,104.224
1377575794243,104.431
1377575854243,104.370
1377575914243,104.659
1377575974243,104.078
1377576034253,104.170
1377576094253,104.307
1377576154253,103.965
1377576214253,104.419
1377576274253,104.043
1377576334253,104.562
1377576394253,104.268
1377576454253,103.887
1377576514253,104.162
1377576574253,104.227
1377576634253,104.249
1377576694253,104.326
1377576754253,104.304
1377576814253,104.299
1377576874253,104.509
1377576934253,104.206
1377576994253,104.317
1377577054253,103.677
1377577114253,104.559
1377577174253,104.312
1377577234253,104.415
1377577294253,103.819
1377577354253,103.803
1377577414253,103.697
1377577474253,104.011
1377577534253,103.918
1377577594253,104.366
1377577654253,103.517
1377577714253,104.162
1377577774253,104.200
1377577834253,103.491
1377577894253,104.109
1377577954253,103.661
1377578014253,103.982
1377578074253,103.416
1377578134253,104.366
1377578194253,104.103
1377578254253,104.099
1377578314253,103.866
1377578374253,103.861
1377578434253,103.791
1377578494253,103.637
1377578554253,104.079
1377578614253,103.487
1377578674253,103.419
1377578734253,103.863
1377578794253,103.731
1377578854253,103.860
1377578914253,103.806
1377578974253,103.418
1377579034253,103.900
1377579094253,103.749
1377579154253,103.540
1377579214253,103.560
1377579274253,104.227
1377579334253,103.622
1377579394253,103.794
1377579454253,104.209
1377579514253,103.907
1377579574253,103.469
1377579634263,103.768
1377579694263,103.380
1377579754263,103.873
1377579814263,103.842
1377579874263,103.848
1377579934263,103.882
1377579994263,103.442
1377580054263,103.918
1377580114263,103.531
1377580174263,102.942
1377580234263,103.445
1377580294263,103.853
1377580354263,103.975
1377580414263,103.768
1377580474263,103.854
1377580534263,103.160
1377580594263,103.331
1377580654263,103.818
1377580714263,103.488
1377580774263,103.651
1377580834263,103.244
1377580894263,103.590
1377580954263,103.639
1377581014263,103.900
1377581074263,103.350
1377581134263,103.696
1377581194263,103.347
1377581254263,103.892
1377581314263,103.533
1377581374263,103.428
1377581434263,103.680
1377581494263,103.564
1377581554263,103.511
1377581614263,103.905
1377581674263,103.214
1377581734263,103.164
1377581794263,103.289
1377581854263,103.701
1377581914263,103.341
1377581974263,103.333
1377582034263,103.277
1377582094263,103.357
1377582154263,103.478
1377582214263,103.286
1377582274263,103.704
1377582334263,103.391
1377582394263,103.881
1377582454263,103.572
1377582514263,103.447
1377582574263,104.180
1377582634263,103.847
1377582694263,103.575
1377582754263,103.948
1377582814263,103.678
1377582874263,103.603
1377582934263,103.246
1377582994263,102.979
1377583054263,103.621
1377583114263,103.207
1377583174263,103.343
1377583234273,103.369
1377583294273,103.441
1377583354273,103.676
1377583414273,104.195
1377583474273,103.431
1377583534273,103.423
1377583594273,103.388
1377583654273,103.576
1377583714273,103.657
1377583774273,103.760
1377583834273,103.351
1377583894273,103.850
1377583954273,103.557
1377584014273,104.033
1377584074273,103.710
1377584134273,103.530
1377584194273,103.914
1377584254273,103.636
1377584314273,104.215
1377584374273,103.447
1377584434273,103.507
1377584494273,103.977
1377584554273,104.051
1377584614273,104.606
1377584674273,104.227
1377584734273,103.439
1377584794273,103.922
1377584854273,104.289
1377584914273,103.808
1377584974273,103.759
1377585034273,104.094
1377585094273,104.265
1377585154273,104.065
1377585214273,104.186
1377585274273,104.410
1377585334273,104.243
1377585394273,104.466
1377585454273,104.201
1377585514273,103.953
1377585574273,103.892
1377585634273,103.960
1377585694273,104.130
1377585754273,104.747
1377585814273,103.960
1377585874273,104.209
1377585934273,104.576
1377585994273,104.484
1377586054273,104.507
1377586114273,104.300
1377586174273,104.150
1377586234273,104.049
1377586294273,104.478
1377586354273,104.180
1377586414273,103.534
1377586474273,104.257
1377586534273,104.449
1377586594273,104.186
1377586654273,104.180
1377586714273,104.174
1377586774273,104.634
1377586834283,103.996
1377586894283,103.692
1377586954283,104.410
1377587014283,104.657
1377587074283,104.203
1377587134283,104.060
1377587194283,104.020
1377587254283,104.475
1377587314283,104.326
1377587374283,104.671
1377587434283,103.995
1377587494283,104.769
1377587554283,104.204
1377587614283,104.580
1377587674283,104.202
1377587734283,104.350
1377587794283,103.677
1377587854283,103.935
1377587914283,104.119
1377587974283,104.691
1377588034283,104.626
1377588094283,103.983
1377588154283,104.388
1377588214283,104.044
1377588274283,104.764
1377588334283,104.796
1377588394283,104.071
1377588454283,104.283
1377588514283,104.552
1377588574283,103.865
1377588634283,104.692
1377588694283,104.622
1377588754283,104.321
1377588814283,104.646
1377588874283,104.301
1377588934283,104.132
1377588994283,104.649
1377589054283,104.801
1377589114283,104.786
1377589174283,104.137
1377589234283,104.746
1377589294283,104.629
1377589354283,104.702
1377589414283,104.818
1377589474283,104.366
1377589534283,104.653
1377589594283,104.729
1377589654283,104.525
1377589714283,104.497
1377589774283,104.370
1377589834283,103.790
1377589894283,104.628
1377589954283,104.351
1377590014283,104.708
1377590074283,104.337
1377590134283,104.398
1377590194283,104.834
1377590254283,104.553
1377590314283,104.812
1377590374283,104.895
1377590434293,104.268
1377590494293,104.846
1377590554293,105.081
1377590614293,104.565
1377590674293,104.887
1377590734293,104.880
1377590794293,104.703
1377590854293,104.810
1377590914293,104.657
1377590974293,104.390
1377591034293,104.796
1377591094293,104.240
1377591154293,104.478
1377591214293,104.335
1377591274293,104.597
1377591334293,104.387
1377591394293,105.056
1377591454293,104.568
1377591514293,104.343
1377591574293,104.393
1377591634293,104.388
1377591694293,104.258
1377591754293,104.699
1377591814293,104.523
1377591874293,104.232
1377591934293,104.592
1377591994293,104.788
1377592054293,104.765
1377592114293,104.273
1377592174293,104.724
1377592234293,104.690
1377592294293,103.975
1377592354293,104.772
1377592414293,104.834
1377592474293,104.377
1377592534293,104.337
1377592594293,104.334
1377592654293,104.373
1377592714293,104.576
1377592774293,104.646
1377592834293,104.203
1377592894293,104.721
1377592954293,104.464
1377593014293,104.240
1377593074293,104.714
1377593134293,104.437
1377593194293,104.466
1377593254293,104.222
1377593314293,104.584
1377593374293,104.614
1377593434293,104.408
1377593494293,104.305
1377593554293,104.859
1377593614293,104.456
1377593674293,104.723
1377593734293,104.811
1377593794293,104.794
1377593854293,104.733
1377593914293,104.846
1377593974293,104.430
1377594034304,104.566
1377594094304,104.825
1377594154304,104.592
1377594214304,104.358
1377594274304,104.995
1377594334304,104.754
1377594394304,104.612
1377594454304,104.725
1377594514304,104.237
1377594574304,104.561
1377594634304,104.764
1377594694304,104.843
1377594754304,104.493
1377594814304,104.526
1377594874304,104.867
1377594934304,104.984
1377594994304,104.646
1377595054304,104.922
1377595114304,104.123
1377595174304,104.436
1377595234304,104.882
1377595294304,104.581
1377595354304,104.281
1377595414304,104.533
1377595474304,104.442
1377595534304,104.510
1377595594304,104.441
1377595654304,105.143
1377595714304,104.533
1377595774304,104.531
1377595834304,104.618
1377595894304,104.575
1377595954304,104.654
1377596014304,104.432
1377596074304,104.502
1377596134304,104.642
1377596194304,105.096
1377596254304,105.021
1377596314304,104.275
1377596374304,104.926
1377596434304,104.987
1377596494304,104.683
1377596554304,104.670
1377596614304,105.041
1377596674304,104.621
1377596734304,105.348
1377596794304,104.782
1377596854304,105.040
1377596914304,104.815
1377596974304,105.218
1377597034304,104.786
1377597094304,104.328
1377597154304,105.045
1377597214304,104.251
1377597274304,104.583
1377597334304,104.618
1377597394304,104.844
1377597454304,104.711
1377597514304,105.186
1377597574304,104.780
1377597634314,104.866
1377597694314,104.458
1377597754314,104.596
1377597814314,104.772
1377597874314,104.509
1377597934314,104.950
1377597994314,104.938
1377598054314,104.528
1377598114314,104.653
1377598174314,105.026
1377598234314,104.687
1377598294314,104.856
1377598354314,105.041
1377598414314,104.995
1377598474314,105.171
1377598534314,105.377
1377598594314,105.148
1377598654314,104.468
1377598714314,105.355
1377598774314,104.741
1377598834314,104.864
1377598894314,104.763
1377598954314,104.995
1377599014314,104.706
1377599074314,104.672
1377599134314,105.395
1377599194314,104.968
1377599254314,105.572
1377599314314,104.865
1377599374314,105.232
1377599434314,105.339
1377599494314,105.197
1377599554314,104.925
1377599614314,104.569
1377599674314,105.413
1377599734314,105.095
1377599794314,105.202
1377599854314,104.683
1377599914314,104.886
1377599974314,104.752
1377600034314,105.576
1377600094314,105.341
1377600154314,104.881
1377600214314,105.091
1377600274314,105.030
1377600334314,105.098
1377600394314,105.100
1377600454314,105.078
1377600514314,104.945
1377600574314,105.106
1377600634314,105.131
1377600694314,105.132
1377600754314,104.837
1377600814314,105.307
1377600874314,105.427
1377600934314,105.206
1377600994314,105.147
1377601054314,105.336
1377601114314,105.035
1377601174314,105.771
1377601234325,105.227
1377601294325,104.929
1377601354325,104.836
1377601414325,105.141
1377601474325,105.518
1377601534325,105.447
1377601594325,105.594
1377601654325,104.762
1377601714325,105.400
1377601774325,105.042
1377601834325,104.938
1377601894325,104.802
1377601954325,105.220
1377602014325,105.119
1377602074325,105.356
1377602134325,104.734
1377602194325,105.252
1377602254325,104.806
1377602314325,105.047
1377602374325,104.904
1377602434325,105.211
1377602494325,104.701
1377602554325,105.321
1377602614325,105.215
1377602674325,104.945
1377602734325,104.525
1377602794325,104.810
1377602854325,104.919
1377602914325,104.934
1377602974325,104.829
1377603034325,104.764
1377603094325,104.488
1377603154325,104.811
1377603214325,104.291
1377603274325,104.670
1377603334325,104.686
1377603394325,104.522
1377603454325,104.508
1377603514325,104.674
1377603574325,104.833
1377603634325,104.474
1377603694325,104.679
1377603754325,105.876
1377603814325,104.493
1377603874325,104.551
1377603934325,105.165
1377603994325,104.554
1377604054325,104.030
1377604114325,104.659
1377604174325,104.378
1377604234325,104.230
1377604294325,104.652
1377604354325,104.553
1377604414325,104.265
1377604474325,104.395
1377604534325,104.305
1377604594325,104.131
1377604654325,104.411
1377604714325,104.278
1377604774325,104.733
1377604834336,104.338
1377604894336,104.021
1377604954335,104.010
1377605014335,104.361
1377605074335,104.524
1377605134336,104.201
1377605194336,104.612
1377605254336,104.139
1377605314336,104.363
1377605374336,104.194
1377605434336,103.956
1377605494336,104.271
1377605554336,103.804
1377605614336,103.828
1377605674336,103.588
1377605734336,104.409
1377605794336,104.333
1377605854336,104.106
1377605914336,103.859
1377605974336,104.022
1377606034336,104.428
1377606094336,103.709
1377606154336,104.010
1377606214336,104.325
1377606274335,103.850
1377606334335,104.104
1377606394335,103.660
1377606454336,103.928
1377606514336,103.984
1377606574336,104.381
1377606634336,103.567
1377606694336,104.061
1377606754336,103.710
1377606814336,103.758
1377606874336,104.042
1377606934336,103.674
1377606994336,104.155
1377607054336,104.052
1377607114336,104.008
1377607174336,104.292
1377607234336,103.973
1377607294336,103.868
1377607354336,104.278
1377607414336,104.022
1377607474336,103.826
1377607534336,103.960
1377607594336,103.633
1377607654335,104.336
1377607714335,104.080
1377607774335,103.637
1377607834336,104.287
1377607894336,104.010
1377607954336,103.984
1377608014336,104.016
1377608074336,104.222
1377608134336,104.128
1377608194336,104.229
1377608254336,104.345
1377608314336,104.065
1377608374336,103.789
1377608434346,103.980
1377608494346,104.046
1377608554346,104.021
1377608614346,103.697
1377608674346,103.777
1377608734346,103.640
1377608794346,104.063
1377608854346,104.217
1377608914346,103.636
1377608974346,103.646
1377609034346,103.944
1377609094346,103.548
1377609154346,103.907
1377609214346,103.800
1377609274346,103.888
1377609334346,103.556
1377609394346,103.612
1377609454346,103.796
1377609514346,103.773
1377609574346,104.023
1377609634346,103.752
1377609694346,104.077
1377609754346,104.129
1377609814346,103.862
1377609874346,104.357
1377609934346,104.037
1377609994346,103.996
1377610054346,103.988
1377610114346,103.637
1377610174346,103.908
1377610234346,103.949
1377610294346,104.038
1377610354346,103.634
1377610414346,104.347
1377610474346,103.529
1377610534346,104.008
1377610594346,104.182
1377610654346,103.763
1377610714346,103.606
1377610774346,104.161
1377610834346,104.230
1377610894346,104.375
1377610954346,104.127
1377611014346,104.178
1377611074346,103.997
1377611134346,104.178
1377611194346,103.830
1377611254346,104.293
1377611314346,104.718
1377611374346,103.676
1377611434346,104.024
1377611494346,104.252
1377611554346,104.380
1377611614346,104.299
1377611674346,103.938
1377611734346,103.970
1377611794346,103.901
1377611854346,104.490
1377611914346,103.792
1377611974346,103.843
1377612034357,104.112
1377612094357,104.484
1377612154357,103.773
1377612214357,104.088
1377612274357,103.960
1377612334357,103.979
1377612394357,104.488
1377612454357,103.584
1377612514357,103.656
1377612574357,104.406
1377612634357,104.324
1377612694357,103.851
1377612754357,104.150
1377612814357,104.485
1377612874357,103.982
1377612934357,104.049
1377612994357,104.035
1377613054357,103.627
1377613114357,104.324
1377613174357,104.067
1377613234357,104.114
1377613294357,103.773
1377613354357,104.110
1377613414357,104.262
1377613474357,104.471
1377613534357,103.944
1377613594357,103.761
1377613654357,104.268
1377613714357,104.044
1377613774357,104.770
1377613834357,104.097
1377613894357,103.863
1377613954357,104.758
1377614014357,103.803
1377614074357,104.152
1377614134357,103.680
1377614194357,104.492
1377614254357,104.043
1377614314357,104.340
1377614374357,104.273
1377614434357,104.404
1377614494357,104.305
1377614554357,104.330
1377614614357,104.194
1377614674357,104.011
1377614734357,104.641
1377614794357,104.004
1377614854357,104.234
1377614914357,104.319
1377614974357,104.248
1377615034357,104.406
1377615094357,103.909
1377615154357,104.078
1377615214357,104.450
1377615274357,104.034
1377615334357,104.200
1377615394357,104.183
1377615454357,103.950
1377615514357,104.192
1377615574357,103.829
1377615634369,103.916
1377615694369,104.635
1377615754369,104.104
1377615814369,104.577
1377615874369,103.816
1377615934369,104.225
1377615994369,103.964
1377616054369,103.728
1377616114369,104.106
1377616174369,104.113
1377616234369,104.082
1377616294369,103.791
1377616834369,103.379
1377616894369,104.092
1377616954369,104.062
1377617014369,104.150
1377617074369,103.879
1377617134369,104.041
1377617194369,103.929
1377617254369,104.334
1377617314369,104.028
1377617374369,103.568
1377617434369,104.075
1377617494369,104.379
1377617554369,104.027
1377617614369,104.391
1377617674369,103.929
1377617734369,103.879
1377617794369,103.977
1377617854369,104.315
1377617914369,104.333
1377617974369,104.379
1377618034369,104.102
1377618094369,104.074
1377618154369,104.193
1377618214369,104.466
1377618274369,104.235
1377618334369,104.751
1377618394369,104.546
1377618454369,104.224
1377618514369,104.333
1377618574369,104.470
1377618634369,104.762
1377618694369,104.427
1377618754369,104.654
1377618814369,104.462
1377618874369,104.884
1377618934369,104.445
1377618994369,104.318
1377619054369,104.424
1377619114369,104.298
1377619174369,104.191
1377619234380,104.249
1377619294380,104.044
1377619354380,103.651
1377619414380,104.128
1377619474380,104.209
1377619534380,103.753
1377619594380,104.143
1377619654380,104.358
1377619714380,103.492
1377619774380,103.346
1377619834380,103.915
1377619894380,103.558
1377619954380,103.901
1377620014380,103.468
1377620074380,103.620
1377620134380,103.476
1377620194380,103.805
1377620254380,103.737
1377620314380,103.138
1377620374380,103.907
1377620434380,103.061
1377620494380,103.244
1377620554380,102.850
1377620614380,103.197
1377620674380,103.236
1377620734380,103.116
1377620794380,103.241
1377620854380,103.174
1377620914380,103.483
1377620974380,103.010
1377621034380,102.746
1377621094380,102.842
1377621154380,102.894
1377621214380,102.656
1377621274380,102.643
1377621334380,102.873
1377621394380,103.375
1377621454380,102.662
1377621514380,102.567
1377621574380,102.788
1377621634380,102.487
1377621694380,102.194
1377621754380,102.450
1377621814380,102.798
1377621874380,102.776
1377621934380,102.249
1377621994380,102.588
1377622054380,102.285
1377622114380,102.535
1377622174380,102.166
1377622234380,102.458
1377622294380,102.617
1377622354380,102.078
1377622414380,102.445
1377622474380,101.919
1377622534380,102.215
1377622594380,102.189
1377622654380,101.836
1377622714380,102.268
1377622774380,101.900
1377622834392,101.986
1377622894392,101.852
1377622954392,101.947
1377623014392,101.677
1377623074392,102.385
1377623134392,101.502
1377623194392,102.306
1377623254392,102.107
1377623314392,101.818
1377623374392,102.019
1377623434392,101.999
1377623494392,101.710
1377623554392,102.111
1377623614392,101.816
1377623674392,102.099
1377623734392,101.880
1377623794392,101.911
1377623854392,101.384
1377623914392,101.758
1377623974392,101.657
1377624034392,102.019
1377624094392,101.738
1377624154392,102.033
1377624214392,101.723
1377624274392,101.435
1377624334392,101.842
1377624394392,101.698
1377624454392,101.826
1377624514392,101.511
1377624574392,101.638
1377624634392,101.501
1377624694392,101.730
1377624754392,102.292
1377624814392,101.791
1377624874392,101.787
1377624934392,101.468
1377624994392,102.052
1377625054392,102.094
1377625114392,101.836
1377625174392,101.472
1377625234392,102.064
1377625294392,101.579
1377625354392,101.897
1377625414392,101.458
1377625474392,101.669
1377625534392,101.648
1377625594392,101.475
1377625654392,102.040
1377625714392,100.986
1377625774392,101.681
1377625834392,102.248
1377625894392,102.036
1377625954392,101.924
1377626014392,101.548
1377626074392,101.581
1377626134392,101.834
1377626194392,101.756
1377626254392,101.727
1377626314392,102.019
1377626374392,101.463
1377626434404,101.661
1377626494404,101.597
1377626554404,101.871
1377626614404,101.570
1377626674404,101.837
1377626734404,101.924
1377626794404,101.779
1377626854404,101.584
1377626914404,101.878
1377626974404,101.656
1377627034404,101.746
1377627094404,101.494
1377627154404,101.709
1377627214404,102.235
1377627274404,101.758
1377627334404,101.698
1377627394404,101.671
1377627454404,101.634